Location: Unspecified
(54.1780°N, 0.0000°E)
Time: 01:04:25
(UTC+00:00)

Altair - Pass Details

Date: 21 June 2019
Orbit: 1501 x 1683 km, 47.2° (Epoch: 14 October)

Event Time Altitude Azimuth Distance (km) Brightness Sun altitude
Rises 22:58:40 0° 262° (W) 4,774 10.2 -11.2°
Reaches altitude 10° 23:01:46 10° 259° (WSW) 3,814 9.6 -11.3°
Maximum altitude 23:11:15 59° 183° (S) 1,857 7.6 -11.6°
Drops below altitude 10° 23:21:02 10° 108° (ESE) 3,931 9.4 -11.9°
Sets 23:24:17 0° 105° (ESE) 4,928 9.9 -12.0°
